Regional Weather Roundup
Issued by NWS Jackson, KY

Home | Current Version | Previous Version | Graphics & Text | Print | Product List | Glossary On
Versions: 1 2 3 4 5 6 7 8 9 10 11 12 13 14 15 16 17 18 19 20 21 22 23 24 25 26 27 28 29 30 31 32 33 34 35 36 37 38 39 40 41 42 43 44 45 46 47 48 49 50
000
ASUS43 KJKL 181219
RWRJKL

EAST KENTUCKY HOURLY WEATHER ROUNDUP
NATIONAL WEATHER SERVICE JACKSON KY
800 AM EDT THU SEP 18 2014

NOTE: "FAIR" INDICATES FEW OR NO CLOUDS BELOW 12,000 FEET WITH
NO SIGNIFICANT WEATHER AND/OR OBSTRUCTIONS TO VISIBILITY.

* THESE REPORTS ARE NOT UNDER NWS QUALITY CONTROL AND MAY NOT
  REPORT WEATHER SUCH AS PRECIPITATION AND FOG.

KYZ079-080-083-085-087-088-110-112-115-119-120-181300
...EASTERN KENTUCKY...

CITY           SKY/WX    TMP DP  RH WIND       PRES   REMARKS
JACKSON        PTCLDY    54  51  90 CALM      30.03S
6HR MIN TEMP:  53; 6HR MAX TEMP:  59;

LONDON         PTCLDY    56  53  90 CALM      30.04R FOG
6HR MIN TEMP:  56; 6HR MAX TEMP:  59; 6HR PCP:  0.01;

MONTICELLO*    MOCLDY    57  55  94 CALM      30.04S FOG
6HR MIN TEMP:  54; 6HR MAX TEMP:  60;

WILLIAMSBURG*  CLOUDY    55  55 100 CALM      30.03R
MIDDLESBORO*   CLOUDY    56  56 100 CALM      30.03R FOG
6HR MIN TEMP:  54; 6HR MAX TEMP:  56; 6HR PCP:  0.02;

HARLAN APT*    CLOUDY    55  55 100 MISG      30.03S
HAZARD APT*    FOG       54  54 100 CALM      30.04R VSB 0
BLACK MTN*       N/A     50  50 100 VRB3        N/A
PIKEVILLE APT* FOG       54  54 100 CALM      30.04R VSB 0
BIG SANDY*     FOG       53  53 100 CALM      30.04R VSB 1/4
6HR MIN TEMP:  52; 6HR MAX TEMP:  54;

MOREHEAD APT*  MOSUNNY   54  52  94 CALM      30.06S FOG
$$

KYZ035-036-041-042-044-050-067-078-099-181300
...CENTRAL KENTUCKY...

CITY           SKY/WX    TMP DP  RH WIND       PRES   REMARKS
MT STERLING*   MOCLDY    54  52  94 NE3       30.05S
FLEMING/MASON* MOCLDY    52  48  87 NE3       30.06R
DANVILLE*      CLOUDY    55  52  88 CALM      30.05R
RICHMOND*      MOCLDY    55  52  88 CALM      30.03R
LEXINGTON      PTCLDY    56  50  80 NE5       30.04R
6HR MIN TEMP:  56; 6HR MAX TEMP:  60;

FRANKFORT      CLOUDY    55  52  89 CALM      30.04R
6HR MIN TEMP:  52; 6HR MAX TEMP:  57;

$$

KYZ091>093-OHZ055-061-077-WVZ005-015-034-035-042-181300
...SOUTHERN OHIO/WEST VIRGINIA...

CITY           SKY/WX    TMP DP  RH WIND       PRES   REMARKS
COVINGTON      PTCLDY    53  48  83 CALM      30.06R
COLUMBUS       CLEAR     52  47  83 N3        30.06R HAZE
DAYTON         CLEAR     49  46  90 N7        30.07R FOG
WILMINGTON     CLEAR     48  44  86 N6        30.05R
HUNTINGTON     MOCLDY    54  52  93 CALM      30.03R
CHARLESTON     CLOUDY    56  56 100 CALM      30.03R FOG
PINEVILLE*     FOG       57  57 100 MISG      30.09R VSB 3/4
BECKLEY        CLOUDY    57  53  86 CALM      30.05R
BLUEFIELD      FOG       55  53  93 W3        30.06R VSB<1/4
$$

VAZ002-007-008-TNZ017-027-036-066-071-181300
...SOUTHWEST VIRGINIA/EAST TENNESSEE...

CITY           SKY/WX    TMP DP  RH WIND       PRES   REMARKS
WISE*          PTCLDY    54  54 100 CALM      30.06R FOG
JONESVILLE*    CLOUDY    55  55 100 CALM      30.05R FOG
ABINGDON*      FOG       56  56 100 CALM      30.05R VSB<1/4
BRISTOL        FOG       56  53  90 CALM      30.03R VSB 1
KNOXVILLE      PTCLDY    60  58  92 CALM      30.00
OAK RIDGE      CLOUDY    61  58  90 CALM      30.02R
CROSSVILLE     CLEAR     57  53  86 CALM      30.03R
NASHVILLE      PTCLDY    59  57  93 CALM      30.00R
$$

...KEY TO REMARKS...
VSB - VISIBILITY IN MILES
WCI - WIND CHILL INDEX
HX  - HEAT INDEX

$$


USA.gov is the U.S. government's official web portal to all federal, state and local government web resources and services.